sat.trackr.live / text

‹ back to catalog

STARLINK-36467

NORAD 67348 · 2026-003Q

PAYLOAD ACTIVE UNKNOWN

§ Identity

Operator
Country
US
Launch date
2026-01-09
Launch site
AFETR
Launch vehicle
Mass (kg)
RCS (m²)

Purposes: comms

External: N2YO · Heavens-Above · Gunter

§ Orbital elements

Epoch: 2026-09-19T21:33:31.365216Z

Period
94.27 min
Inclination
42.9974°
Eccentricity
0.0000372
Mean motion
15.27594943 rev/d
Perigee alt
482.7 km
Apogee alt
483.3 km
Semi-major
6,861.1 km
B*
5.7590e-4
RAAN
210.4479°
Arg perigee
231.1343°
Mean anomaly
128.9475°
Rev number
3,852

§ Raw data

STARLINK-364671 67348U 26003Q   26262.89827969  .00015626  00000+0  57590-3 0  99932 67348  42.9974 210.4479 0000372 231.1343 128.9475 15.27594943 38524

JSON: /api/v1/satellites/67348 · /tle

For live sub-satellite position, see the globe view (requires WebGL).

§ Visibility from observer

Set your observer location to see the next 7 days of passes ≥ 10°. The values pass through the URL so the page stays shareable.

No JS? Fill the form by hand. The geolocation button needs JavaScript.